Погода в Икике

Чили     20°15′11″S   70°07′45″W
темп.,
°C
ветер,
м/с
пор.,
м/с
влажн.,
%
обл.,
%
осадки,
мм/ч
давл.,
гПа
погр.,
м
15 июня, вт
вт1523:00+15з118415 0.0 1018168
02:00+15всв228547 0.0 1018252
05:00+15св228547 0.0 1018246
08:00+15св228386 0.1 1020330
11:00+15ююв0179100 0.1 1020112
14:00+16ююз3380100 0.1 1018283
17:00+16ююз3381100 0.0 1018268
20:00+16ююз4483100 0.0 1019270
16 июня, ср
ср1623:00+16ю2284100 0.0 1019271
02:00+16ююз2283100 0.0 1018186
05:00+16ююз448339 0.0 1016226
08:00+16ююз55790 0.0 1017264
11:00+16ююз447830 0.0 1017201
14:00+16ююз45841 0.0 1015270
17:00+16ююз558640 0.0 1015273
20:00+16ююз33854 0.0 1016227
17 июня, чт
чт1723:00+16ююз33850 0.0 1017183
02:00+16ююз44860 0.0 1016227
05:00+16ююз33835 0.0 1014166
08:00+16ююз44820 0.0 1016210
11:00+16ююз33847 0.0 1016221
14:00+16ююз338515 0.0 1014239
17:00+15ю338818 0.0 1014235
20:00+16ююз22850 0.0 1015205
18 июня, пт
пт1823:00+16ююз33860 0.0 1016206
02:00+16ю338314 0.0 1015185
05:00+16ююз558389 0.0 1014257
08:00+16ююз558224 0.0 1016269
11:00+16ююз44832 0.0 1017235
14:00+16ююз558818 0.0 1016316
17:00+16ююз558826 0.0 1016317
20:00+16ююз448634 0.0 1017362
19 июня, сб
сб1923:00+16ююз44875 0.0 1017263
02:00+16ююз5588100 0.0 1016274
05:00+16ююз5483100 0.0 1014247
08:00+16ююз55825 0.0 1015249
11:00+16ююз5586100 0.0 1017268
14:00+16ю128822 0.0 1016206
17:00+14всв2293100 0.0 1015137
20:00+14всв1191100 0.0 1017111